User: anonymous   Login
Location: Erdweis
(48.5167°N, 15.3500°E)
Time: 14:22:32
(UTC+00:00)
Language:

ERS-1 Rocket - Orbit

View from above orbital plane
View from above orbital plane
View from above satellite
View from above satellite

Ground track
Ground track

The orbit data is extracted from the following two-line orbital elements,

1 21610U 91050F   20333.48556704 +.00000057 +00000-0 +31461-4 0  9996
2 21610 098.4493 040.9447 0004256 120.0464 250.7462 14.40923530541323
Epoch (UTC): 28 November 2020 11:39:12
Eccentricity: 0.0004256
inclination: 98.4493°
perigee height: 752 km
apogee height: 758 km
right ascension of ascending node: 40.9447°
argument of perigee: 120.0464°
revolutions per day: 14.40923530
mean anomaly at epoch: 250.7462°
orbit number at epoch: 54132

The dashed part of the orbit path shows where the satellite is in the earth's shadow,  

DLR